EW5256 Weather Reports


Display with metric or nautical units.
time (UTC)temp
F
wind
direction
speed
MPH
gust
MPH
rain 1hr
in
rain 24hr
in
rain mn
in
humidity
%
barometer
mb
20260505124521 56 202 6.0 10.0 0.00 0.00 0.00 74 1008.8
20260505123014 55 196 6.0 11.0 0.00 0.00 0.00 76 1008.9
20260505121522 54 203 5.0 9.0 0.00 0.00 0.00 76 1009.0
20260505120023 55 216 4.0 7.0 0.00 0.00 0.00 77 1009.2
20260505114513 53 176 5.0 10.0 0.00 0.00 0.00 77 1009.4
20260505113011 53 185 5.0 8.0 0.00 0.00 0.00 77 1009.3
20260505111516 52 205 4.0 8.0 0.00 0.00 0.00 79 1009.4
20260505101530 49 182 3.0 6.0 0.00 0.00 0.00 82 1009.2
20260505100037 49 209 2.0 7.0 0.00 0.00 0.00 82 1009.0
20260505094513 49 182 3.0 7.0 0.00 0.00 0.00 81 1009.0
20260505093018 49 197 3.0 7.0 0.00 0.00 0.00 82 1009.1
20260505091514 48 193 2.0 6.0 0.00 0.00 0.00 82 1009.1
20260505090006 48 178 3.0 6.0 0.00 0.00 0.00 81 1009.2
20260505084523 48 185 1.0 4.0 0.00 0.00 0.00 81 1009.3
20260505083023 48 181 3.0 6.0 0.00 0.00 0.00 81 1009.3
20260505081535 48 217 2.0 5.0 0.00 0.00 0.00 81 1009.3
20260505080046 48 190 2.0 5.0 0.00 0.00 0.00 80 1009.3
20260505074531 49 199 3.0 5.0 0.00 0.00 0.00 80 1009.3
20260505073038 49 189 2.0 6.0 0.00 0.00 0.00 79 1009.2
20260505071639 49 217 2.0 5.0 0.00 0.00 0.00 79 1009.2
20260505070002 49 213 3.0 8.0 0.00 0.00 0.00 78 1009.1
20260505064538 49 221 3.0 6.0 0.00 0.00 0.00 78 1009.0
20260505063137 50 198 3.0 7.0 0.00 0.00 0.00 77 1009.0
20260505061617 50 174 1.0 6.0 0.00 0.00 0.00 77 1009.1
20260505060111 50 178 3.0 5.0 0.00 0.00 0.00 76 1009.0
20260505054640 51 198 3.0 6.0 0.00 0.00 0.00 75 1009.0
20260505053117 51 184 3.0 7.0 0.00 0.00 0.00 75 1009.0
20260505051646 51 173 2.0 5.0 0.00 0.00 0.00 74 1008.9
20260505041642 57 188 4.0 9.0 0.00 0.00 0.00 64 1008.3
20260505040001 58 186 5.0 9.0 0.00 0.00 0.00 63 1008.1
20260505034519 57 189 4.0 10.0 0.00 0.00 0.00 63 1008.1
20260505033145 57 198 4.0 10.0 0.00 0.00 0.00 64 1008.0
20260505031551 56 198 6.0 15.0 0.00 0.00 0.00 68 1008.0
20260505030028 54 220 4.0 10.0 0.00 0.00 0.00 71 1008.1
20260505024524 53 184 4.0 8.0 0.00 0.00 0.00 72 1008.2
20260505023023 52 169 3.0 7.0 0.00 0.00 0.00 74 1008.1
20260505021635 51 198 2.0 5.0 0.00 0.00 0.00 77 1008.1
20260505020037 50 186 3.0 7.0 0.00 0.00 0.00 78 1008.1
20260505014526 50 187 1.0 6.0 0.00 0.00 0.00 77 1008.1
20260505013142 50 197 2.0 6.0 0.00 0.00 0.00 78 1007.9
20260505011612 50 219 2.0 4.0 0.00 0.00 0.00 77 1007.7
20260505010137 50 183 2.0 5.0 0.00 0.00 0.00 76 1007.5
20260505004634 50 225 0.0 3.0 0.00 0.00 0.00 75 1007.4
20260505003113 51 172 0.0 2.0 0.00 0.00 0.00 73 1007.2
20260505001648 52 180 1.0 3.0 0.00 0.00 0.00 72 1006.9
20260505000135 54 181 1.0 3.0 0.00 0.00 0.00 68 1006.8
20260504234528 55 175 2.0 4.0 0.00 0.00 0.00 64 1006.6
20260504233032 57 169 1.0 4.0 0.00 0.00 0.00 60 1006.4
20260504231503 58 174 2.0 4.0 0.00 0.00 0.00 58 1006.1
20260504230136 58 173 2.0 6.0 0.00 0.00 0.00 59 1006.1
20260504224637 59 184 3.0 6.0 0.00 0.00 0.00 61 1006.0
20260504223036 60 157 2.0 7.0 0.00 0.00 0.00 62 1005.9
20260504221553 61 153 3.0 9.0 0.00 0.00 0.00 60 1005.9
20260504220001 62 175 2.0 6.0 0.00 0.00 0.00 58 1005.8
20260504214534 64 176 2.0 8.0 0.00 0.00 0.00 54 1005.8
20260504213135 65 59 1.0 8.0 0.00 0.00 0.00 52 1005.6
20260504211641 65 90 5.0 9.0 0.00 0.00 0.00 55 1005.6
20260504210138 65 46 3.0 6.0 0.00 0.00 0.00 55 1005.7
20260504204641 65 225 1.0 5.0 0.00 0.00 0.00 57 1005.7
20260504203050 63 19 3.0 7.0 0.00 0.00 0.00 59 1005.7
20260504201529 63 38 4.0 8.0 0.00 0.00 0.00 55 1006.0
20260504200148 62 63 3.0 9.0 0.00 0.00 0.00 58 1005.9
20260504194502 63 22 4.0 7.0 0.00 0.00 0.00 58 1005.9
20260504193118 64 188 1.0 5.0 0.00 0.00 0.00 60 1005.9
20260504191534 63 355 2.0 5.0 0.00 0.00 0.00 61 1006.0
20260504190024 60 329 0.0 2.0 0.00 0.00 0.00 67 1006.3
20260504184634 57 185 0.0 2.0 0.00 0.00 0.00 66 1006.4
20260504183039 57 169 0.0 3.0 0.00 0.00 0.00 62 1006.3
20260504181635 57 203 2.0 5.0 0.00 0.00 0.00 61 1006.2
20260504180140 57 178 1.0 4.0 0.00 0.00 0.00 62 1006.2
20260504174610 58 226 2.0 5.0 0.00 0.00 0.00 58 1006.3
20260504173048 59 219 3.0 14.0 0.00 0.00 0.00 54 1006.0
20260504170151 60 213 7.0 14.0 0.00 0.00 0.00 53 1005.7
20260504160117 60 200 5.0 12.0 0.00 0.01 0.00 54 1006.2
20260504150147 58 197 6.0 11.0 0.00 0.03 0.00 59 1007.1
20260504140141 55 202 4.0 10.0 0.00 0.08 0.00 61 1007.9
20260504130144 53 193 5.0 9.0 0.00 0.09 0.00 63 1008.4